Location: Grieser Field
(39.7333°N, 81.7975°W)
Time: 03:58:16
(UTC-04:00)

MOS 1-B - Visible Passes

Search period start: 26 April 2017 00:00
Search period end: 06 May 2017 00:00
Orbit: 906 x 913 km, 99.3° (Epoch: 24 April)

Date Brightness Start Highest point End Pass type
(mag) Time Alt. Az. Time Alt. Az. Time Alt. Az.
26 Apr 6.8 03:16:05 10° ENE 03:18:08 12° E 03:20:12 10° ESE visible
26 Apr 4.3 04:54:50 10° NNE 05:00:40 87° WNW 05:05:27 16° SSW visible
27 Apr 6.8 03:20:54 10° ENE 03:23:39 13° E 03:26:23 10° ESE visible
27 Apr 4.3 05:00:16 10° NNE 05:06:05 80° WNW 05:11:03 14° SSW visible
28 Apr 6.7 03:25:53 10° ENE 03:29:09 15° E 03:32:24 10° SE visible
28 Apr 4.3 05:05:43 10° N 05:11:31 72° WNW 05:16:39 13° SSW visible
29 Apr 6.6 03:30:57 10° NE 03:34:39 17° E 03:38:18 10° SE visible
29 Apr 4.4 05:11:10 10° N 05:16:55 65° WNW 05:22:16 12° SSW visible
30 Apr 6.5 03:36:06 10° NE 03:40:08 19° E 03:44:08 10° SE visible
30 Apr 4.5 05:16:38 10° N 05:22:20 59° WNW 05:27:51 11° SSW visible
01 May 6.4 03:41:17 10° NE 03:45:37 21° E 03:49:55 10° SE visible
01 May 4.6 05:22:07 10° N 05:27:44 53° WNW 05:33:19 10° SW visible
02 May 6.2 03:46:31 10° NE 03:51:06 24° E 03:55:39 10° SSE visible
02 May 4.7 05:27:36 10° N 05:33:09 48° WNW 05:38:38 10° SW visible
03 May 6.1 03:51:46 10° NE 03:56:35 26° E 04:01:21 10° SSE visible
03 May 4.8 05:33:06 10° N 05:38:32 43° WNW 05:43:57 10° SW visible
04 May 5.9 03:57:03 10° NE 04:02:03 29° E 04:06:57 10° SSE visible
04 May 5.0 05:38:36 10° N 05:43:56 39° WNW 05:49:13 10° SW visible
05 May 5.8 04:02:21 10° NE 04:07:31 33° E 04:12:33 10° SSE visible
05 May 5.1 05:44:06 10° N 05:49:19 35° WNW 05:54:30 10° SW visible
